Home   Weather   Orléans   Past weeks

Flag for France Past Weather in Orléans, Centre-Val de Loire, France — Yesterday and Last 2 Weeks

50 °F


Feels Like: 47 °F
Forecast: 49 / 60 °F
Wind: 7 mph from South

Location: Orleans Airport

Current Time: Oct 24, 2016 at 5:35:18 AM

Latest Report: Oct 24, 2016 at 5:00 AM

Visibility: 4 mi

Pressure: 29.77 "Hg

Humidity: 100%

Dew Point: 50 °F

Location of OrléansLocation

Past Weather in Orléans — Graph


Orléans Temperature Yesterday

Maximum temperature yesterday: 50 °F (at 5:30 PM)
Minimum temperature yesterday: 37 °F (at 6:30 AM)
Average temperature yesterday: 44 °F

High & Low Weather Summary for the Past Weeks

High70 °F (Oct 16, 3:30 PM)100% (Oct 11, 4:00 AM)30.30 "Hg (Oct 11, 4:00 AM)
Low34 °F (Oct 12, 8:00 AM)39% (Oct 9, 5:30 PM)29.59 "Hg (Oct 14, 10:00 AM)
Average50 °F83%30.01 "Hg
* Reported Oct 9 4:00 AM — Oct 24 4:30 AM, Orléans, Weather by CustomWeather, © 2016

Note: Actual official high and low records may vary slightly from our data, if they occured in-between our weather recording intervals... More about our weather records


Orléans Weather History for the Previous 24 Hours

Scroll right to see more
Time TempWeatherWind HumidityBarometerVisibility
4:30 AM
Mon, Oct 24
48 °FFog.2 mph100%29.77 "Hg3 mi
4:00 AM48 °FFog.2 mph100%29.77 "Hg3 mi
3:30 AM48 °FFog.1 mph100%29.77 "Hg3 mi
3:00 AM48 °FFog.5 mph100%29.77 "Hg3 mi
2:30 AM48 °FFog.3 mph100%29.77 "Hg2 mi
2:00 AM48 °FFog.2 mph94%29.77 "Hg2 mi
1:30 AM46 °FFog.No wind100%29.77 "Hg1 mi
1:00 AM46 °FPartly cloudy.2 mph93%29.74 "Hg1 mi
12:30 AM48 °FFog.No wind94%29.74 "Hg2 mi
12:00 AM48 °FLight fog.3 mph100%29.74 "Hg1 mi
11:30 PM
Sun, Oct 23
48 °FFog.3 mph100%29.71 "Hg2 mi
11:00 PM48 °FFog.5 mph94%29.71 "Hg2 mi
10:30 PM48 °FFog.5 mph100%29.71 "Hg3 mi
10:00 PM50 °FFog.3 mph94%29.71 "Hg3 mi
9:30 PM50 °FFog.5 mph94%29.71 "Hg3 mi
9:00 PM50 °FClear.3 mph94%29.71 "Hg4 mi
8:30 PM50 °FMostly cloudy.7 mph94%29.71 "Hg5 mi
8:00 PM50 °FOvercast.7 mph100%29.71 "Hg5 mi
7:30 PM50 °FMostly cloudy.6 mph94%29.71 "Hg6 mi
7:00 PM50 °FPassing clouds.9 mph94%29.68 "Hg5 mi
6:30 PM50 °FLight rain. Mostly cloudy.12 mph94%29.68 "Hg4 mi
6:00 PM50 °FLight rain. Broken clouds.12 mph94%29.68 "Hg5 mi
5:30 PM50 °FPartly sunny.13 mph94%29.68 "Hg5 mi
5:00 PM48 °FLow clouds.13 mph100%29.68 "Hg6 mi
4:30 PM48 °FMostly cloudy.13 mph100%29.68 "Hg4 mi
4:00 PM48 °FLight rain. Mostly cloudy.8 mph94%29.71 "Hg4 mi
3:30 PM48 °FLight rain. Mostly cloudy.8 mph94%29.71 "Hg5 mi
3:00 PM48 °FLight rain. Clear.10 mph94%29.68 "HgN/A
2:30 PM48 °FLight rain. Clear.12 mph87%29.68 "HgN/A
2:00 PM46 °FSunny.12 mph93%29.71 "Hg10 mi
1:30 PM46 °FOvercast.14 mph87%29.71 "HgN/A
1:00 PM46 °FSunny.14 mph87%29.71 "Hg10 mi
12:30 PM46 °FSunny.13 mph87%29.74 "Hg10 mi
12:00 PM46 °FSunny.14 mph87%29.74 "Hg10 mi
11:30 AM43 °FScattered clouds.14 mph93%29.74 "HgN/A
11:00 AM41 °FMostly cloudy.14 mph93%29.74 "Hg6 mi
10:30 AM41 °FMostly cloudy.14 mph93%29.74 "Hg4 mi
10:00 AM39 °FFog.13 mph100%29.77 "Hg3 mi
9:30 AM39 °FFog.10 mph100%29.74 "Hg3 mi
9:00 AM39 °FFog.10 mph100%29.74 "Hg3 mi
8:30 AM39 °FFog.13 mph100%29.74 "Hg2 mi
8:00 AM39 °FFog.12 mph100%29.74 "Hg1 mi
7:30 AM39 °FFog.13 mph100%29.77 "Hg1 mi
7:00 AM39 °FFog.12 mph100%29.77 "Hg1 mi
6:30 AM37 °FFog.7 mph100%29.77 "Hg3 mi
6:00 AM39 °FFog.9 mph93%29.77 "Hg3 mi
5:30 AM39 °FFog.8 mph93%29.77 "Hg3 mi
5:00 AM39 °FClear.7 mph100%29.77 "Hg4 mi
Weather by CustomWeather, © 2016

See weather overviewHow to use our weather pages